Theta_e
305 306 307 307 306 306 305 304 304 303 303 301 301 301 301 301 301 301 303 303 303 302 303 303 303 302 301 302 303 303 303 304
305 306 306 307 306 305 305 304 303 303 303 302 301 301 300 299 299 299 300 300 299 299 299 299 299 299 299 299 300 299 300 301
305 305 305 305 305 305 305 304 304 303 302 301 301 300 299 298 298 298 297 298 297 297 296 296 296 296 296 295 296 295 296 297
304 305 304 303 303 302 302 302 301 300 299 299 299 299 298 297 297 296 296 295 295 294 294 294 294 294 294 294 294 295 295 295
303 304 303 302 301 301 300 300 299 299 298 297 297 297 297 297 296 295 294 293 293 293 293 293 293 293 292 292 292 293 293 293
302 302 301 300 299 297 297 297 296 295 296 296 296 295 295 294 293 293 292 292 292 291 291 292 291 291 291 290 290 290 290 289
299 298 297 296 294 294 294 294 294 294 294 293 292 292 291 291 291 290 290 290 290 289 289 289 289 290 290 289 289 288 287 286
297 296 294 293 292 292 291 292 292 291 291 290 289 289 289 289 288 287 288 288 288 288 287 287 288 290 289 288 287 286 286 285
294 293 292 291 290 289 289 290 290 289 288 287 286 286 286 286 286 286 287 286 286 286 286 286 286 289 289 287 286 286 285 285
291 290 289 288 287 286 287 288 287 286 284 284 284 283 284 283 284 285 285 285 285 285 285 284 285 288 288 286 285 284 284 283
287 287 286 285 284 283 284 284 284 282 281 282 282 282 281 282 282 283 284 283 283 282 283 283 283 285 286 286 285 283 282 281
286 284 284 283 281 280 281 281 280 279 279 279 280 279 281 281 282 282 282 282 281 281 282 282 283 283 285 286 284 283 281 279
282 282 281 280 278 278 278 277 277 276 275 276 277 278 279 279 280 280 280 280 280 280 281 282 282 282 283 285 286 285 281 279
278 278 279 277 276 275 275 274 273 271 272 274 275 277 278 277 278 279 280 279 279 279 279 279 281 282 283 283 285 286 281 279
276 275 275 275 274 273 272 271 268 269 271 273 275 276 277 277 278 278 277 277 277 277 278 279 280 280 280 281 282 283 281 279
274 273 273 272 271 271 270 268 267 268 271 273 274 274 275 276 276 276 277 278 276 277 278 277 277 279 281 281 280 282 278 277
272 270 270 269 269 268 266 265 264 267 270 271 272 273 274 274 274 277 278 278 279 280 279 280 282 282 282 281 282 283 280 275
269 268 267 266 266 266 265 263 263 265 267 269 270 271 271 272 271 270 273 276 277 278 279 280 280 281 280 280 281 282 280 274
266 264 264 263 262 265 264 262 262 264 266 269 269 270 270 270 270 270 270 269 271 275 277 278 280 281 280 280 280 278 273 271
261 262 261 260 262 263 260 261 263 265 267 267 267 268 268 269 269 270 270 269 270 272 274 274 277 278 276 277 276 269 267 268
Wind_Speed
5 7 6 5 3 4 4 5 5 4 5 5 6 6 6 6 7 8 7 7 6 7 8 8 8 7 7 6 6 7 6 5
3 6 4 3 3 4 4 5 5 5 5 6 6 7 7 7 7 8 8 7 8 8 8 8 8 8 7 8 8 8 8 7
4 4 3 3 4 5 5 5 5 5 6 7 8 7 7 8 8 7 8 7 8 7 8 8 8 7 8 8 8 8 9 8
8 7 4 3 4 5 5 6 5 5 5 6 6 6 8 8 7 7 8 8 9 9 9 9 8 8 8 9 9 8 9 8
7 6 3 2 3 4 5 6 6 7 6 6 6 7 8 8 8 8 8 9 9 9 10 9 9 9 9 9 9 8 8 7
5 5 6 7 7 7 7 7 8 8 7 8 8 8 8 8 8 9 9 9 10 10 10 10 9 7 9 8 8 8 9 6
2 4 5 6 6 7 7 7 8 7 6 7 6 6 7 7 8 8 8 9 9 10 10 11 9 10 10 9 8 7 7 7
4 5 5 6 7 8 9 8 7 6 5 6 6 7 7 7 8 8 9 9 10 10 10 12 11 13 11 12 9 8 7 7
4 5 6 7 7 9 9 8 7 7 8 8 9 9 9 9 8 8 8 9 9 10 10 11 10 14 12 13 11 9 9 8
6 6 6 7 8 9 8 7 7 7 9 10 10 10 10 10 10 9 9 9 9 9 10 11 11 14 13 13 9 9 8 7
5 5 6 8 9 9 8 8 8 10 11 10 10 10 11 11 10 9 8 10 8 9 9 11 12 15 17 15 9 9 7 5
6 5 5 6 8 9 9 8 10 11 11 11 10 11 10 10 9 10 10 9 9 10 9 10 10 11 18 20 12 8 7 6
5 6 7 7 8 9 9 10 10 11 11 11 10 9 9 10 9 9 9 10 10 10 9 7 7 10 14 21 24 16 10 9
5 7 6 6 7 9 9 10 11 11 10 10 10 9 9 10 10 9 9 9 10 9 10 10 8 7 14 21 23 22 10 7
5 5 6 6 7 7 9 9 9 10 10 9 9 9 9 7 7 7 8 9 10 9 10 10 9 6 5 8 10 17 12 13
4 5 7 7 7 7 8 8 9 9 9 8 8 9 10 8 8 8 8 9 9 9 9 10 10 8 12 13 9 7 9 8
3 5 6 6 6 6 4 5 7 9 7 7 7 8 8 9 9 13 17 19 21 21 16 11 17 22 19 20 21 23 20 5
4 4 5 5 6 5 4 4 5 7 8 7 7 7 8 8 9 11 9 17 19 20 20 21 23 22 12 17 18 19 19 5
4 4 4 5 7 4 4 5 5 6 8 6 7 7 7 7 9 8 9 11 10 14 18 16 21 7 11 17 15 4 8 5
5 6 4 5 7 2 2 5 6 7 6 5 7 7 7 7 8 8 8 8 10 10 12 11 19 16 15 18 4 8 7 7
Wind_Direction
69 39 24 21 359 333 306 297 296 294 283 289 296 290 287 292 284 280 280 278 279 277 273 275 276 274 273 274 268 263 261 253
56 17 6 6 328 320 315 301 301 287 285 276 268 278 274 269 269 270 275 276 273 272 270 270 269 263 260 261 264 262 262 255
295 303 319 346 344 330 334 315 320 313 296 292 294 294 284 277 279 279 278 279 275 273 271 272 268 268 261 260 258 253 252 246
318 340 359 337 352 333 331 348 352 325 308 299 299 291 278 281 286 285 280 272 268 267 262 263 264 263 260 260 261 258 260 259
308 314 337 15 28 7 3 0 351 345 338 322 315 312 313 313 305 293 284 279 273 269 268 266 266 262 259 260 258 260 258 259
322 338 344 24 28 15 5 4 353 337 337 331 330 323 321 315 308 301 293 285 284 280 274 268 262 260 261 253 255 254 254 243
336 15 27 34 10 349 350 344 331 332 322 326 320 316 307 303 300 295 289 285 280 274 273 275 269 257 239 237 258 246 251 250
42 54 34 11 352 345 335 330 332 327 332 341 331 319 313 307 302 298 294 291 283 278 272 270 266 263 246 234 244 247 237 237
41 11 12 359 351 335 332 328 335 333 345 344 335 327 324 318 309 303 300 296 293 289 283 277 273 268 249 240 239 249 245 214
24 3 351 357 345 333 323 333 327 348 341 334 328 324 322 316 314 310 304 298 292 288 285 279 279 273 254 242 235 242 249 254
4 351 348 350 343 330 327 329 339 342 330 325 323 321 317 315 314 310 299 291 290 285 280 278 281 277 272 245 238 226 220 209
348 338 346 349 341 323 327 333 339 331 327 325 326 320 316 315 314 308 304 299 296 290 289 280 275 274 272 262 248 224 211 186
319 321 336 352 345 328 327 344 337 333 325 322 320 320 317 314 313 312 305 302 303 302 299 288 282 264 274 273 259 232 209 191
310 322 341 2 348 326 342 341 335 329 323 321 321 319 326 318 317 316 317 313 310 307 306 307 303 286 266 276 269 250 208 173
340 334 328 348 340 338 335 338 329 317 318 317 319 324 317 318 311 317 315 313 311 309 308 308 305 294 267 264 270 265 198 182
341 330 321 331 325 332 337 338 322 314 311 320 328 325 320 318 314 308 297 297 299 296 293 293 294 291 284 280 277 261 179 166
327 299 299 310 310 320 335 325 314 319 329 330 324 319 317 317 312 304 306 313 308 303 300 294 280 292 281 291 282 281 176 168
286 291 299 298 304 305 314 303 303 314 313 320 312 318 315 314 311 311 317 317 319 319 319 315 303 295 276 303 293 283 176 166
289 285 282 284 280 283 314 312 300 300 298 301 313 309 310 317 310 314 323 324 324 324 322 326 330 319 301 310 303 221 101 107
265 259 251 275 286 286 312 304 305 307 305 317 304 302 308 300 310 310 316 317 315 319 328 353 337 337 348 332 311 123 115 105